Home > Weather > Krishnagiri > Past weeks

Flag for India Weather for the Past 2 Weeks in Krishnagiri, Tamil Nadu, India

Now
75 °F

Clear.


Feels Like: 78 °F
Forecast: 66 / 90 °F
Wind: 7 mph from East

Location: Bangalore / Hindustan

Current Time: Feb 8, 2016 at 11:32:49 PM

Latest Report: Feb 8, 2016 at 9:30 PM


Visibility: 5 mi

Pressure: 30.07 "Hg

Humidity: 54%

Dew point: 57 °F

Location of KrishnagiriLocation

Historic Weather in Krishnagiri — Graph

°F

Krishnagiri Temperature Yesterday

High & Low Weather Summary for the Past Weeks

 TemperatureHumidityPressure
High88 °F (Jan 28, 3:00 PM)94% (Jan 24, 11:30 PM)30.15 "Hg (Jan 24, 11:30 PM)
Low61 °F (Feb 2, 7:00 AM)19% (Feb 1, 4:00 PM)29.92 "Hg (Jan 27, 9:00 PM)
Average76 °F52%30.05 "Hg
* Reported Jan 24 9:30 PM — Feb 8 9:30 PM, Krishnagiri, Weather by CustomWeather, © 2016

Note: Actual official high and low records may vary slightly from our data, if they occured in-between our weather recording intervals... More about our weather records

Advertising

Krishnagiri Weather History for the Previous 24 Hours

 ConditionsComfort  
Time TempWeatherWind HumidityBarometerVisibility
9:30 PM
Mon, Feb 8
75 °FClear.7 mph54%30.07 "Hg5 mi
8:30 PM75 °FClear.7 mph54%30.04 "Hg5 mi
7:30 PM77 °FClear.7 mph51%30.01 "Hg5 mi
6:30 PM81 °FClear.7 mph42%29.98 "Hg5 mi
5:30 PM84 °FClear.7 mph37%29.95 "Hg5 mi
5:00 PM84 °FClear.9 mph37%29.95 "Hg5 mi
4:30 PM84 °FClear.9 mph37%29.95 "Hg5 mi
4:00 PM84 °FClear.9 mph37%29.95 "Hg5 mi
3:30 PM86 °FClear.9 mph38%29.95 "Hg5 mi
3:00 PM86 °FClear.12 mph38%29.95 "Hg5 mi
2:30 PM86 °FClear.9 mph38%29.95 "Hg5 mi
2:00 PM86 °FClear.9 mph38%29.98 "Hg5 mi
1:30 PM86 °FClear.9 mph38%29.98 "Hg5 mi
1:00 PM84 °FClear.10 mph43%30.01 "Hg4 mi
12:30 PM82 °FClear.12 mph45%30.01 "Hg4 mi
12:00 PM82 °FClear.9 mph45%30.04 "Hg4 mi
11:30 AM81 °FClear.9 mph48%30.07 "Hg4 mi
11:00 AM79 °FHaze.6 mph58%30.07 "Hg2 mi
Weather by CustomWeather, © 2016

See weather overviewHow to use our weather pages